RH
43 43 43 43 42 40 38 37 35 33 30 28 28 29 31 30 32 36 44 47 48 48 49 44 38 35 36 41 45 48 51 52 53 50 44 40 40 43 51 58 61 61 58 60 59 60 64 63 60 56 55 54 55 55 57 61 65 69 72 69 66 64 64 66 69 73 79 86 91 94 95 93 92 91 91 91 91 90 89 88 87 86 85 85 84 84
43 43 43 43 42 41 40 38 37 35 32 30 30 30 31 31 32 36 43 47 49 49 49 48 43 38 33 35 38 42 45 48 50 49 45 42 41 45 53 61 63 62 60 60 60 61 63 63 61 58 55 55 55 55 58 61 66 70 73 71 70 70 72 75 80 85 90 93 94 95 94 93 92 92 90 91 90 90 89 88 87 86 85 85 84 84
43 42 42 43 42 42 41 40 38 37 34 32 31 30 31 32 33 36 43 48 49 49 50 50 47 42 36 33 32 33 35 39 42 44 44 43 43 46 54 63 65 64 61 60 61 62 63 64 63 61 56 55 55 56 58 62 66 71 74 75 76 77 79 81 83 85 87 91 93 94 95 94 93 92 91 90 90 89 88 88 88 87 85 84 83 82
42 41 42 42 42 42 42 41 40 38 36 34 32 31 32 33 34 37 42 48 50 50 50 49 48 45 40 35 31 28 27 29 32 35 39 42 44 47 54 63 67 67 64 61 61 61 61 63 64 63 58 57 56 56 58 61 66 72 78 79 79 80 82 83 83 84 85 90 92 94 94 94 94 93 92 91 90 89 87 87 87 86 85 84 84 84
41 41 41 41 42 42 43 42 41 39 37 35 34 32 32 33 34 37 41 47 50 51 50 50 49 47 43 38 33 29 26 25 25 28 32 37 42 47 54 63 69 70 67 62 60 59 58 61 63 63 60 58 56 56 58 59 66 75 80 79 80 80 81 82 83 84 85 89 92 94 94 94 94 94 93 92 91 89 87 86 86 85 85 85 86 86
40 40 40 41 42 42 43 43 41 40 38 36 35 34 33 33 34 36 40 45 49 52 52 52 50 49 46 43 38 34 29 26 25 25 28 33 39 46 53 63 69 72 68 63 60 57 56 60 63 64 62 60 57 56 57 58 67 76 81 80 80 80 80 81 84 86 87 89 92 94 94 95 95 94 94 94 92 90 88 87 86 85 87 88 88 89
40 40 40 41 42 43 44 44 42 40 39 37 36 35 34 33 34 36 38 43 48 51 52 52 52 51 50 47 43 39 35 31 28 27 28 31 36 43 51 60 68 71 70 66 63 59 57 60 62 64 64 62 59 57 57 58 66 76 82 81 81 80 79 81 84 89 91 91 92 93 94 95 95 95 95 94 93 92 91 90 88 88 91 91 91 91
39 39 39 40 41 43 45 45 44 42 40 39 38 36 35 34 34 35 37 41 45 49 51 51 52 52 52 50 47 44 41 37 34 33 33 34 37 41 47 57 67 73 73 70 67 64 60 59 62 65 65 64 61 59 59 60 67 77 83 82 81 81 80 81 85 90 93 93 93 93 94 94 94 94 95 94 94 93 93 92 91 92 93 93 92 92
39 38 39 40 42 44 46 46 45 43 42 41 40 39 38 37 35 35 35 38 42 46 49 50 51 52 53 52 50 48 46 43 41 40 40 40 41 43 45 55 66 75 77 74 70 67 64 61 62 65 66 66 63 61 61 62 69 78 85 84 83 82 82 82 85 90 93 94 94 94 94 93 94 94 94 94 94 93 93 93 93 93 94 93 93 92
40 40 39 41 43 45 46 47 46 45 43 43 43 42 41 40 38 36 35 36 39 42 46 48 49 51 53 53 52 51 50 48 46 45 44 43 46 48 47 54 66 76 78 74 71 68 64 62 62 64 66 67 64 62 63 62 68 78 87 85 84 83 82 82 85 89 93 93 93 93 93 93 93 93 94 94 94 93 93 93 93 93 94 93 93 93
42 41 41 42 44 46 48 48 48 47 46 46 45 45 43 42 40 39 37 36 37 39 42 45 47 49 51 52 53 53 53 52 49 47 47 47 51 54 53 59 67 74 77 73 70 67 62 62 63 66 68 67 65 64 64 65 70 79 88 87 86 84 82 81 84 89 92 93 92 92 92 93 93 93 93 94 94 94 93 93 93 93 94 93 93 93
45 44 44 45 46 47 49 50 49 49 49 49 48 47 45 44 42 41 40 38 37 37 38 41 44 47 49 51 53 53 54 54 52 50 49 51 55 59 60 66 71 75 75 71 68 66 62 62 64 66 70 68 67 67 67 66 71 79 88 89 87 84 81 79 83 88 92 92 91 90 91 91 92 93 93 93 93 93 94 93 93 93 93 93 93 93
48 47 47 47 47 49 51 51 51 51 51 51 51 50 49 48 46 44 42 40 38 37 36 37 39 42 45 49 51 53 54 54 53 52 51 54 58 62 65 72 76 77 77 72 69 67 65 64 64 66 69 69 69 70 70 67 71 79 87 88 87 84 79 78 81 87 91 92 92 91 90 90 91 91 92 92 91 92 93 93 93 93 93 93 93 93
50 49 49 49 49 50 52 52 52 52 52 52 52 52 51 50 49 47 44 41 39 38 36 36 36 38 40 45 49 53 54 55 54 53 53 55 59 63 69 76 79 78 78 76 74 73 70 68 66 67 69 70 72 73 74 72 75 80 85 87 86 82 78 78 81 86 92 93 93 93 93 91 90 90 91 91 91 91 92 93 93 93 93 93 93 93
51 51 51 50 50 51 52 52 53 52 52 52 52 52 51 51 50 48 46 43 40 39 38 36 35 35 36 41 47 52 54 55 55 54 54 56 59 64 72 79 80 80 79 79 79 78 75 71 69 69 72 72 74 76 77 78 81 84 85 86 84 81 77 78 82 87 92 93 93 93 94 92 91 90 90 89 89 90 91 93 94 93 93 93 93 94
52 52 51 51 51 51 52 53 52 52 52 52 52 52 52 51 50 49 48 44 42 40 38 36 35 33 33 38 44 49 53 55 55 55 55 57 60 64 72 80 82 80 79 79 79 79 76 72 70 70 74 74 76 78 79 81 82 84 85 86 84 80 75 79 85 90 93 93 93 93 93 92 92 91 89 88 88 89 90 92 93 93 93 93 93 94
52 52 51 51 51 51 52 53 52 52 52 52 52 52 52 51 51 50 49 45 42 40 39 37 35 33 31 34 40 46 52 54 56 56 55 57 59 63 70 79 82 81 79 78 77 76 75 72 71 72 74 75 76 78 80 82 83 84 85 86 83 79 73 82 88 92 92 93 94 93 93 92 93 93 91 89 89 89 90 91 91 92 91 92 92 92
52 51 51 51 50 51 52 52 52 52 52 52 52 52 52 51 51 50 48 46 43 41 40 39 36 34 31 32 37 44 51 53 55 56 55 57 60 64 70 78 81 82 81 81 79 76 73 74 73 72 75 76 75 75 79 81 83 84 86 86 83 78 74 83 89 92 92 93 93 93 93 93 93 93 93 91 90 90 90 90 90 90 91 91 91 91
52 52 51 51 50 50 51 52 52 52 52 52 52 52 52 51 50 49 48 45 43 42 41 40 38 35 32 31 34 41 49 53 55 56 56 57 61 65 71 80 83 83 83 83 81 77 74 75 75 76 78 77 76 75 78 78 80 84 88 88 83 79 79 86 90 92 93 93 93 93 93 93 93 93 93 92 92 92 92 91 90 89 88 89 89 89
53 52 52 51 51 50 51 51 52 52 52 52 52 52 52 51 50 49 48 46 44 43 43 42 40 37 33 31 33 38 46 52 55 56 56 58 61 66 72 81 83 83 83 83 80 77 75 77 79 79 77 78 77 77 76 75 77 80 87 88 85 82 86 88 90 91 93 92 92 93 93 93 93 93 93 92 92 91 91 90 90 89 87 86 86 86
54 53 53 52 51 51 51 51 52 52 52 52 52 51 51 50 50 49 48 47 45 44 44 43 44 43 39 34 32 36 42 51 55 56 57 58 62 67 75 81 84 84 83 83 79 76 75 80 82 81 79 78 79 78 77 75 76 81 87 88 86 85 90 90 90 90 92 92 91 91 92 93 93 93 93 92 91 91 90 89 88 88 87 87 86 86
53 53 52 51 50 50 50 51 51 52 52 52 52 51 51 50 50 49 48 47 46 45 45 46 47 48 46 39 34 34 40 50 54 56 56 58 61 67 76 83 85 84 83 83 80 77 75 80 83 84 82 80 79 78 76 74 74 78 86 89 87 86 90 90 90 91 92 91 91 90 90 91 92 92 92 91 91 90 89 87 86 85 84 84 84 84
53 53 52 51 51 50 50 50 51 51 52 52 52 51 50 50 50 50 50 49 48 47 47 47 48 49 48 43 37 35 40 49 54 56 56 58 61 67 76 84 85 83 83 82 81 78 75 79 82 83 82 81 79 77 76 75 74 75 81 87 88 86 89 92 93 93 93 92 91 91 90 91 91 92 92 92 91 91 89 87 85 84 82 82 82 82
53 53 52 52 51 51 50 50 51 51 52 52 51 50 50 50 50 50 51 50 50 49 49 49 49 48 47 44 39 37 40 49 54 56 56 58 61 66 76 83 84 83 82 81 80 78 76 78 80 81 80 80 79 78 77 77 75 74 78 87 87 86 88 91 92 93 93 92 92 91 91 91 91 92 92 92 92 92 91 90 88 86 85 84 83 82
53 53 52 52 52 51 51 51 50 50 51 51 51 50 50 49 50 50 50 50 50 50 50 50 48 47 46 43 40 39 42 50 54 56 56 57 60 65 74 83 84 82 81 81 80 79 76 77 79 80 80 78 78 79 80 79 76 74 77 85 87 86 87 90 91 92 92 91 91 91 90 90 91 91 91 91 92 92 91 90 90 89 89 88 87 86
53 53 53 52 52 51 51 51 50 50 49 50 50 50 49 50 50 50 50 50 50 50 51 50 50 49 48 46 43 42 44 51 54 56 56 58 60 65 72 83 85 83 81 81 80 79 77 76 78 80 82 78 78 80 82 80 77 75 75 82 85 85 85 89 90 91 91 91 91 90 90 89 90 90 91 91 91 90 90 89 89 88 88 89 88 88
54 53 53 53 52 52 51 51 50 49 48 48 49 49 49 50 50 51 51 51 50 50 51 51 51 51 51 49 47 45 46 51 54 56 56 58 60 65 73 83 86 84 82 81 81 79 77 75 76 78 80 78 78 81 83 81 78 76 74 78 81 83 83 86 88 90 90 91 91 90 90 90 90 90 90 90 90 89 89 89 88 88 87 87 87 88
55 54 54 53 53 52 52 51 51 50 49 48 48 49 50 50 51 51 51 50 50 51 51 51 51 51 50 50 49 48 47 51 54 56 56 58 61 66 74 84 87 85 83 82 81 80 77 74 74 76 77 77 79 81 82 80 78 77 76 77 79 80 80 83 85 87 89 90 90 90 90 91 91 91 91 90 89 88 88 87 87 87 87 86 86 87
57 56 55 54 54 54 53 53 52 51 50 49 49 50 51 51 51 51 51 50 50 50 51 51 51 50 50 50 50 49 48 51 53 55 56 59 62 67 75 85 87 86 85 84 83 81 77 73 73 74 76 77 78 80 80 79 78 77 77 77 78 78 77 78 80 83 86 88 89 90 90 90 90 90 90 90 89 88 87 87 87 86 87 86 86 86
59 58 57 56 56 56 56 55 54 54 53 52 52 51 52 51 51 51 51 51 50 51 51 50 50 51 51 51 50 49 48 51 53 55 57 59 63 69 79 86 88 87 85 85 84 82 80 76 75 75 76 77 78 78 77 77 77 77 78 78 78 76 74 74 75 77 80 84 87 89 89 90 90 90 90 90 89 89 87 87 87 87 87 86 86 85
63 61 60 60 59 59 59 59 58 57 56 55 54 53 52 52 51 51 51 51 51 51 51 51 51 51 50 49 48 47 48 50 53 55 57 60 65 72 81 87 88 87 85 85 84 83 82 81 80 79 79 79 78 77 75 76 76 77 77 78 78 77 74 72 72 74 77 81 84 86 88 89 89 89 89 90 89 89 87 87 87 88 88 87 85 84
67 66 65 65 66 66 66 66 64 62 60 57 55 53 53 52 52 52 51 51 51 51 51 51 51 51 50 48 47 47 48 50 52 54 56 60 66 74 82 88 88 87 86 85 84 83 83 84 84 84 83 83 81 78 75 76 77 77 78 78 79 78 75 73 73 75 78 81 83 85 86 87 88 88 88 88 88 88 87 86 87 87 88 86 84 83
72 71 72 73 74 73 73 72 70 68 63 60 56 54 53 52 52 52 51 51 51 51 51 51 51 50 50 48 47 47 48 50 52 53 56 61 67 75 83 88 88 87 86 85 84 83 83 84 84 85 85 84 81 78 75 77 78 79 78 78 79 80 78 75 75 77 80 81 83 84 84 85 86 87 87 87 86 86 86 86 86 86 86 85 83 82
76 76 77 77 77 77 76 75 73 70 65 60 57 54 53 52 52 51 51 51 51 51 51 51 51 51 50 48 47 46 47 48 50 52 55 60 67 74 82 87 88 87 86 85 84 83 83 83 83 84 83 82 79 75 73 75 78 79 78 78 80 80 79 76 76 78 80 83 84 85 85 84 85 86 86 85 85 84 84 84 85 85 84 83 82 81
79 79 79 78 78 77 76 76 73 70 64 60 56 54 52 52 51 51 51 50 50 50 50 50 50 50 50 48 46 44 44 47 49 51 54 59 66 73 81 86 88 87 85 85 84 83 83 83 83 83 81 79 76 72 70 74 77 79 78 77 78 79 79 77 76 77 81 84 86 87 86 85 85 85 84 84 83 83 83 84 85 85 84 83 82 81
79 79 79 78 78 78 78 76 72 67 62 58 56 54 52 51 50 50 49 49 49 49 49 49 49 49 49 48 46 45 45 47 48 50 52 58 64 71 79 85 88 88 86 85 84 83 84 84 85 84 82 78 75 72 70 72 75 77 77 77 78 79 80 79 78 77 79 82 84 85 85 84 83 84 85 85 84 84 84 85 85 85 85 84 83 81
79 79 79 77 77 77 78 75 70 65 60 58 55 53 51 50 49 48 48 47 47 47 47 47 47 47 47 47 47 46 46 47 48 49 51 56 61 68 76 84 88 88 86 85 84 84 84 85 86 85 83 79 76 73 72 71 72 74 75 79 81 82 85 84 82 79 78 80 81 83 83 84 85 86 88 88 86 85 85 85 85 85 85 84 83 81
79 79 79 77 77 76 75 72 68 64 61 59 56 54 52 50 48 47 46 46 46 46 46 46 46 46 46 46 46 45 45 45 46 47 49 53 58 65 74 83 87 88 87 85 84 84 85 86 86 85 84 81 79 78 75 73 72 72 73 80 83 85 86 87 85 83 80 78 78 79 81 84 87 88 89 88 88 87 85 85 85 84 84 83 82 81
77 77 78 77 76 74 72 69 67 65 63 61 59 56 54 51 49 47 46 45 45 45 44 44 44 45 45 46 46 45 45 45 45 46 47 51 56 63 73 81 86 88 87 85 84 84 85 86 86 85 85 84 83 81 80 78 76 74 75 81 84 84 84 85 85 83 78 75 74 75 79 84 87 88 88 88 88 87 87 86 86 85 84 82 81 80
77 77 77 77 75 73 70 69 67 65 63 61 60 58 56 52 49 47 46 45 44 44 43 43 43 43 44 45 45 46 46 46 46 46 47 49 54 61 72 79 84 87 88 86 85 84 84 85 86 85 86 87 86 85 83 81 79 78 79 81 83 84 84 82 79 75 72 73 76 78 79 81 85 88 88 88 88 88 88 88 88 86 84 81 79 78
77 77 77 77 76 73 71 69 67 65 62 61 59 58 56 53 50 48 46 45 44 43 43 43 43 42 43 43 45 46 47 48 47 47 47 49 52 60 71 78 82 85 88 87 86 85 85 85 86 86 87 88 88 86 84 81 80 79 80 81 82 83 80 74 70 69 73 78 81 81 79 79 80 83 85 87 87 87 87 88 88 86 82 78 75 74
76 77 77 77 76 74 71 69 67 65 62 60 58 57 55 53 51 49 47 45 44 43 42 42 42 42 42 42 43 45 47 47 47 47 47 49 53 59 68 75 80 83 87 88 87 86 86 86 86 86 87 89 89 87 84 80 78 79 81 80 79 77 74 67 66 72 83 84 83 83 82 80 79 79 81 83 85 85 85 86 86 85 82 78 75 74
75 76 76 76 75 73 71 69 66 64 62 59 57 56 55 53 51 49 47 45 44 43 42 41 41 41 41 41 42 44 46 47 47 48 48 51 54 58 64 71 76 80 83 87 88 88 88 87 87 87 88 89 89 88 85 79 76 75 78 78 75 73 72 69 72 79 83 82 81 81 81 79 77 77 78 79 80 81 83 85 85 86 87 83 80 77
75 75 76 76 74 73 70 68 66 64 62 59 57 56 55 53 51 49 47 45 44 43 42 41 41 40 40 41 41 43 45 47 48 49 50 52 55 58 61 66 71 75 78 85 88 88 88 88 88 88 88 88 89 89 87 81 77 74 75 74 71 69 70 75 80 83 81 79 78 78 78 76 74 73 73 76 78 81 84 86 86 88 90 88 86 84
75 75 75 75 74 73 71 69 67 65 62 60 57 56 55 53 51 49 46 45 44 42 41 41 40 40 40 40 41 42 43 46 48 50 52 53 56 58 60 62 65 69 74 81 86 88 89 89 88 88 88 88 89 89 90 86 81 77 75 73 73 73 77 80 83 83 81 78 78 78 79 76 74 72 72 77 83 87 88 87 87 88 89 90 90 88
74 75 75 75 75 74 73 71 68 66 63 60 58 56 55 53 51 49 47 45 44 43 41 40 40 40 39 39 40 41 42 45 47 50 52 54 56 57 58 59 61 65 71 78 84 87 89 89 89 89 88 87 88 89 90 88 85 81 77 74 77 81 84 83 83 83 83 82 82 82 83 82 80 78 78 82 86 89 89 88 88 89 90 91 91 91
73 75 75 75 75 75 75 72 69 66 63 61 58 57 55 53 51 49 47 46 44 43 41 40 40 40 39 39 39 40 41 44 46 49 52 54 56 57 58 58 59 63 69 76 82 86 88 88 89 89 89 88 88 88 88 89 87 85 80 77 80 84 87 86 85 84 84 83 83 83 83 84 84 84 85 86 88 89 89 88 88 89 90 91 91 91
72 73 74 75 76 76 76 74 70 67 64 62 60 58 56 54 52 50 48 46 45 43 41 40 40 39 39 39 38 39 40 42 45 48 51 53 55 57 59 58 59 62 68 75 80 84 87 88 88 89 88 88 88 88 87 87 87 85 83 81 82 84 86 86 86 86 85 84 84 83 83 84 84 84 84 85 87 88 89 88 88 89 90 90 91 91
70 72 73 75 76 76 77 74 71 68 65 63 61 59 57 55 53 51 48 47 45 44 42 40 40 39 39 38 38 39 39 41 43 46 49 51 53 55 58 59 60 62 67 73 78 82 85 86 87 88 88 88 88 87 87 86 86 85 83 82 83 84 85 85 86 86 86 86 85 84 84 84 84 83 83 85 87 88 88 88 88 89 90 90 90 90
68 70 71 73 75 76 77 74 72 69 66 64 62 60 58 56 54 52 49 48 46 45 43 41 40 39 39 38 38 38 39 40 42 44 47 49 51 53 56 58 60 63 67 71 76 80 83 85 86 87 88 88 88 88 87 86 85 84 83 82 83 84 85 85 85 85 85 85 86 86 86 85 84 83 82 84 86 87 89 89 89 89 90 90 90 89
66 68 69 71 73 75 76 75 72 69 67 65 63 61 60 57 55 53 51 49 47 45 44 41 40 39 38 38 38 38 38 39 41 43 45 47 49 51 54 57 60 63 66 70 73 77 80 83 85 86 87 88 88 87 87 86 85 84 83 82 82 83 85 84 84 83 84 84 85 86 86 85 85 84 83 83 84 86 88 89 89 89 90 90 90 89